Location: Saint Peter Port
(49.4500°N, 2.5330°W)
Time: 23:29:05
(UTC+01:00)

Cosmos 2242 Rocket - Visible Passes

Search period start: 19 August 2017 00:00
Search period end: 29 August 2017 00:00
Orbit: 618 x 653 km, 82.5° (Epoch: 19 August)

Date Brightness Start Highest point End Pass type
(mag) Time Alt. Az. Time Alt. Az. Time Alt. Az.
19 Aug 7.0 05:01:13 10° E 05:02:17 11° E 05:03:20 10° ENE visible
20 Aug 6.4 05:21:05 10° SE 05:24:22 20° E 05:27:39 10° NE visible
23 Aug 6.4 04:50:45 10° SE 04:53:39 17° E 04:56:33 10° NE visible
24 Aug 5.5 05:11:53 10° SSE 05:15:50 32° E 05:19:46 10° NNE visible
25 Aug 4.2 05:33:45 10° S 05:38:08 62° E 05:42:32 10° NNE visible
26 Aug 6.5 04:20:31 10° ESE 04:22:56 15° E 04:25:22 10° NE visible
27 Aug 5.7 04:41:22 10° SE 04:45:05 27° E 04:48:49 10° NNE visible
28 Aug 4.4 05:03:04 10° S 05:07:22 52° E 05:11:40 10° NNE visible
